Printer-friendly version

IAU Minor Planet Center

Minor Planet Center

MPEC 2007-M05 : 2007 LV19

The following Minor Planet Electronic Circular may be linked-to from your own Web pages, but must not otherwise be redistributed electronically.


Read MPEC 2007-M04 Read MPEC 2007-M06


M.P.E.C. 2007-M05                                Issued 2007 June 16, 18:31 UT

     The Minor Planet Electronic Circulars contain information on unusual
         minor planets and routine data on comets.  They are published
   on behalf of Commission 20 of the International Astronomical Union by the
          Minor Planet Center, Smithsonian Astrophysical Observatory,
                          Cambridge, MA 02138, U.S.A.

             Prepared using the Tamkin Foundation Computer Network

                              MPC@CFA.HARVARD.EDU
          URL http://www.cfa.harvard.edu/iau/mpc.html  ISSN 1523-6714

                                   2007 LV19

Observations:
     K07L19V* C2007 06 15.41521 12 34 20.46 -19 20 18.4          18.3 V EM005E12
     K07L19V  C2007 06 15.41969 12 34 23.04 -19 20 07.4          18.4 R EM005E12
     K07L19V  C2007 06 15.42416 12 34 25.57 -19 19 55.6          18.6 V EM005E12
     K07L19V  C2007 06 15.43310 12 34 30.72 -19 19 33.7          18.5 V EM005E12
     K07L19V  C2007 06 15.43758 12 34 33.25 -19 19 22.7          18.3 R EM005E12
     K07L19V  C2007 06 15.44204 12 34 35.79 -19 19 11.2          18.5 V EM005E12
     K07L19V  C2007 06 15.48430 12 34 59.972-19 17 24.84         18.5 R EM005E12
     K07L19V  C2007 06 15.48678 12 35 01.403-19 17 18.57         18.3 R EM005E12
     K07L19V  C2007 06 16.13558 12 41 21.25 -18 51 09.8          18.5 R EM005H36
     K07L19V  C2007 06 16.14074 12 41 24.22 -18 50 57.1          18.5 R EM005H36
     K07L19V  C2007 06 16.14574 12 41 27.07 -18 50 43.5          18.5 R EM005H36
     K07L19V  C2007 06 16.15749 12 41 34.24 -18 50 11.7          18.5 V EM005703
     K07L19V  C2007 06 16.15950 12 41 35.37 -18 50 07.6          18.2 V EM005703
     K07L19V  C2007 06 16.16152 12 41 36.49 -18 50 01.9          18.3 V EM005703
     K07L19V  C2007 06 16.16353 12 41 37.62 -18 49 56.4          18.2 V EM005703
     K07L19V 5C2007 06 16.16905 12 41 41.04 -18 49 44.5          18.8 R EM005673
     K07L19V 5C2007 06 16.17322 12 41 43.55 -18 49 33.2                 EM005673
     K07L19V 5C2007 06 16.17894 12 41 46.77 -18 49 18.6                 EM005673
     K07L19V 5C2007 06 16.18458 12 41 49.91 -18 49 05.0                 EM005673
     K07L19V  C2007 06 16.36041 12 43 33.262-18 40 52.85         18.3 R EM005E12
     K07L19V  C2007 06 16.36308 12 43 34.768-18 40 46.09         18.5 R EM005E12
     K07L19V  C2007 06 16.55174 12 45 20.854-18 32 42.08         18.4 R EM005E12
     K07L19V  C2007 06 16.55457 12 45 22.449-18 32 34.78         18.4 R EM005E12

Observer details:
673 Table Mountain Observatory, Wrightwood.  Observer J. Young.  0.61-m f/16
    Cassegrain + CCD.
703 Catalina Sky Survey.  Observer A. R. Gibbs.  Measurers E. C. Beshore,
    A. Boattini, G. J. Garradd, A. R. Gibbs, A. D. Grauer, R. E. Hill,
    R. A. Kowalski, S. M. Larson, R. H. McNaught.  0.68-m Schmidt + CCD.
E12 Siding Spring Survey.  Observer R. H. McNaught.  Measurers E. C. Beshore,
    E. J. Christensen, G. J. Garradd, A. R. Gibbs, A. D. Grauer, R. E. Hill,
    R. A. Kowalski, S. M. Larson, R. H. McNaught.  0.5-m Uppsala Schmidt + CCD.
H36 Sandlot Observatory, Scranton.  Observer G. Hug.  0.30-m
    Schmidt-Cassegrain + CCD.

Orbital elements:
2007 LV19                                                Earth MOID = 0.0882 AU
Epoch 2007 Apr. 10.0 TT = JDT 2454200.5                 MPC
M 349.12213              (2000.0)            P               Q
n   0.55267471     Peri.  301.07289     -0.87600710     +0.40895362
a   1.4705834      Node   264.15380     -0.30615705     -0.88112534
e   0.3203309      Incl.   14.89268     -0.37266531     -0.23743434
P   1.78           H   20.0           G   0.15           U   8
Residuals in seconds of arc
070615 E12  0.3-  0.1+    070616 H36  0.5-  0.0     070616 673  1.1+  0.4+
070615 E12  0.1+  0.1-    070616 H36  0.1+  0.5-    070616 673  1.0+  0.4+
070615 E12  0.2-  0.5+    070616 H36  0.4+  0.3+    070616 673  0.4+  0.3-
070615 E12  0.4+  0.0     070616 703  0.2-  0.4+    070616 E12  0.1-  0.1+
070615 E12  0.0   0.2-    070616 703  0.2-  0.7-    070616 E12  0.0   0.1+
070615 E12  0.1-  0.1+    070616 703  0.5-  0.1-    070616 E12  0.0   0.0
070615 E12  0.1-  0.2-    070616 703  0.5-  0.3+    070616 E12  0.1-  0.0
070615 E12  0.1+  0.2-    070616 673  1.1-  0.3-

Ephemeris:
2007 LV19                a,e,i = 1.47, 0.32, 15                  q = 0.9995
Date    TT    R. A. (2000) Decl.     Delta      r     Elong.  Phase     V
2007 06 09    11 29.37   -23 13.1    0.177    1.071   103.7    67.0    18.8
2007 06 19    13 08.30   -16 48.2    0.187    1.107   114.6    56.6    18.6
2007 06 29    14 26.66   -10 09.7    0.224    1.147   120.8    49.6    18.9
2007 07 09    15 21.96   -05 37.9    0.281    1.191   122.4    46.1    19.4
2007 07 19    16 01.95   -03 09.0    0.353    1.237   121.5    44.5    19.9
2007 07 29    16 33.16   -02 01.9    0.433    1.285   119.4    43.5    20.4
2007 08 08    16 59.38   -01 43.9    0.522    1.333   116.7    42.8    20.9
2007 08 18    17 22.88   -01 54.4    0.617    1.381   113.6    42.2    21.3
2007 08 28    17 44.95   -02 19.1    0.718    1.428   110.2    41.6    21.7
2007 09 07    18 06.23   -02 48.6    0.825    1.474   106.6    41.0    22.0

Kyle E. Smalley              (C) Copyright 2007 MPC           M.P.E.C. 2007-M05

Read MPEC 2007-M04 Read MPEC 2007-M06


Our Web policy. Index to the CBAT/MPC/ICQ pages.


Valid HTML 4.01!